DELTA 1 DEB, 40758

Orbit data source: Space-Track

DELTA 1 DEB, 40758 is space debris in SSO originally from a launch on Thu, 29 Jul 1976 UTC launched from the Air Force Western Test Range (AFWTR). Debris objects in space refer to the collection of defunct objects orbiting the Earth. Examples of debris include non-operational satellites, rocket bodies, and fragments generated from explosions, collisions, or faulty payload assembly.

Loading next visibility...
Identifier
40758, 1976-077GB
Orbit
SSO
Country
Flag of USUS
Related business
Manufacturer
Unknown
Mission
Spacecraft
Bus & Motor
Unknown
Mass
Unknown
Launch date (UTC)
1976-07-29 (49 years ago)
Launch vehicle
Unknown
Launch site
Air Force Western Test Range (AFWTR)
Object type
Payload
Rocket body
Debris
Shape & HBR
Unknown
Radar Cross Section
Small (<0.1 m²)

Expand to show TLE details & history
Last TLE update: 2 months ago

TLE from 2 months ago
0 DELTA 1 DEB
1 40758U 76077GB  25212.16723861 -.00000006  00000-0  34996-3 0  9998
2 40758 102.4740 178.6790 0088894 313.5376  64.5308 12.25462644522783
Epoch: 2025-07-31T04:00Z
TLE epoch observation values (Epoch: 2025-07-31T04:00:49.415Z)
Latitude
18.52573°
Longitude
165.20666°
Altitude
1,540.982 km
Speed
7.111 km/s
True Right ascension
11h 37m 47s
True Declination
18° 25' 57"
Sunlit
Object was in daylight at epoch
Visualization orbit readout
Latitude
Unknown
Longitude
Unknown
Altitude
Unknown
Speed
Unknown
Apparent Right ascension
Unknown
Apparent Declination
Unknown
Sunlit
N/A
Visualization observer readout
Local Sidereal Time
02:22:52
Azimuth
Unknown
Elevation
Unknown
Doppler factor
Unknown
Orbital elements
Apogee altitude
1,637.082 km
Perigee altitude
1,495.836 km
Semi-major axis
7,944.596 km
Eccentricity
0.00889
Inclination
102.474°
RAAN
178.679°
Arg. of periapsis
313.5376°
True anomaly
65.45483°
Mean anomaly
64.5308°
Eccentric anomaly
64.99238°
Mean motion
3.06504 °/min
Orbital period
117.45 mins
BSTAR
0.00034996
Loading maneuver chart data...
Computing Atmospheric mass density...
Loading historical data...
Loading historical data...
Loading historical data...
Loading historical data...
Loading historical data...
Loading historical data...
Loading historical data...

Documentation

Showing up to 5 results
|